Regional Weather Roundup
Issued by NWS

Home | Current Version | Previous Version | Graphics & Text | Print | Product List | Glossary On
Versions: 1 2 3 4 5 6 7 8 9 10 11 12 13 14 15 16 17 18 19 20 21 22 23 24 25 26 27 28 29 30 31 32 33 34 35 36 37 38 39 40 41 42 43 44 45 46 47 48 49 50
000
ASUS43 KLOT 241106
RWRIL

ILLINOIS REGIONAL WEATHER ROUNDUP
NATIONAL WEATHER SERVICE CHICAGO/ROMEOVILLE IL
500 AM CST MON NOV 24 2014

NOTE: "FAIR" INDICATES FEW OR NO CLOUDS BELOW 12,000 FEET WITH NO
SIGNIFICANT WEATHER AND/OR OBSTRUCTIONS TO VISIBILITY.

* THESE STATIONS ARE NOT UNDER NWS QUALITY CONTROL. THEY ALSO MAY NOT
  REPORT WEATHER SUCH AS PRECIPITATION OR FOG.

ILZ001-002-007-009-015-016-024-241200-
NORTHWEST ILLINOIS

CITY           SKY/WX    TMP DP  RH WIND       PRES   REMARKS
MOLINE         MIX PCPN  35  33  92 W14G28    29.22R FOG     WCI  26
STERLING*      CLOUDY    41  37  87 NW16      29.13S
$$

ILZ003-004-008-010-011-017-018-241200-
NORTH CENTRAL ILLINOIS

CITY           SKY/WX    TMP DP  RH WIND       PRES   REMARKS
ROCKFORD       CLOUDY    43  41  93 W13       29.11S FOG
FREEPORT*      CLOUDY    40  39  99 W15       29.13S FOG
ROCHELLE*      CLOUDY    43  43 100 W9        29.10F FOG
DE KALB*       CLOUDY    45  44  98 W13       29.09S
$$

ILZ005-006-012>014-019>023-241200-
NORTHEAST ILLINOIS

CITY           SKY/WX    TMP DP  RH WIND       PRES   REMARKS
CHICAGO-OHARE  LGT RAIN  48  47  96 SW6       29.07R FOG
CHICAGO-MIDWAY CLOUDY    50  48  93 SW8       29.08F
AURORA         LGT RAIN  48  45  89 W10       29.08F FOG
LANSING*       LGT RAIN  49  48  99 SW7       29.09F
JOLIET*        DRIZZLE   48  47  97 W5        29.09S
WAUKEGAN       CLOUDY    47  46  97 VRB5      29.05S
DUPAGE AIRPORT LGT RAIN  47  46  97 W7        29.07F FOG
WHEELING       CLOUDY    48  47  96 W6        29.08F
ROMEOVILLE*    RAIN      48  48 100 W8        29.09S
NORTHERLY ISL    N/A     49  47  93 SW2         N/A
$$

LMZ740>746-241200-
SOUTHERN LAKE MICHIGAN

STATION/POSITION SKY/WX   TEMP    WIND        PRES    VSBY  WAVE
                          AIR SEA DIR/SP/G                  HT/PER
                          (F)     (DEG/KT/KT) (MB)    (MI)  (FT/S)
SOUTHERN BUOY              46 42  220/ 12/ 12  984.0R         1/ 3
WAUKEGAN HARBOR            48     250/  9/ 11   N/A
HARRISON CRIB              48     210/  8/ 11   N/A
BURNHAM HARBOR             49     210/  4/  9   N/A
CALUMET HARBOR             49     200/  7/  9  984.2S
MICHIGAN CITY              49     180/ 10/ 11   N/A
$$

ILZ025>027-034>036-040-047-049-050-058-095>099-241200-
WEST-CENTRAL ILLINOIS

CITY           SKY/WX    TMP DP  RH WIND       PRES   REMARKS
QUINCY         LGT SNOW  33  31  92 W15G24    29.37R FOG     WCI  23
MACOMB*        LGT SNOW  33  33 100 W20G29    29.31R WCI  21
JACKSONVILLE*  LGT SNOW  35  33  93 W21G30    29.33R WCI  24
$$

ILZ028>032-037-038-041>044-048-051>054-059>061-241200-
CENTRAL ILLINOIS

CITY           SKY/WX    TMP DP  RH WIND       PRES   REMARKS
BLOOMINGTON    RAIN      43  43 100 W16       29.17R FOG
DECATUR        LGT RAIN  42  41  96 W23G33    29.20R
PEORIA         RAIN      40  36  86 W17G24    29.23R FOG
LACON*         CLOUDY    40  38  91 NW9       29.16R
LINCOLN*       RAIN      40  39  95 W13G29    29.21R
SPRINGFIELD    RAIN      40  37  89 W21G29    29.26R
TAYLORVILLE    CLOUDY    37  36  93 W24G35    29.27R WCI  26
$$

ILZ033-039-045-046-055>057-062-063-241200-
EAST-CENTRAL ILLINOIS

CITY           SKY/WX    TMP DP  RH WIND       PRES   REMARKS
CHAMPAIGN      HVY RAIN  52  52 100 W13       29.12S FOG
DANVILLE*      LGT RAIN  53  52  95 S13G20    29.10S
RANTOUL*       RAIN      52  52  99 W3        29.11F
MATTOON        LGT RAIN  47  45  93 W24G35    29.19R
$$

ILZ079-100>102-241200-
SOUTHWEST ILLINOIS

CITY           SKY/WX    TMP DP  RH WIND       PRES   REMARKS
ALTON          LGT RAIN  36  34  92 W22G29    29.39R WCI  25
BELLEVILLE     LGT RAIN  39  39  99 W23G35    29.39R WCI  28
CAHOKIA*       LGT RAIN  39  34  82 W16G28    29.43R WCI  30
$$

ILZ064>066-069>071-074>076-080>082-084>086-088>090-092>094-241200-
SOUTH-CENTRAL ILLINOIS

CITY           SKY/WX    TMP DP  RH WIND       PRES   REMARKS
CARBONDALE     CLOUDY    47  43  86 W18G29    29.39R
MT. VERNON     CLOUDY    46  39  76 W14G23    29.34R
CENTRALIA*     CLOUDY    44  39  82 W24G32    29.34R
$$

ILZ067-068-072-073-078-083-087-091-241200-
SOUTHEAST ILLINOIS

CITY           SKY/WX    TMP DP  RH WIND       PRES   REMARKS
LAWRENCEVILLE  LGT RAIN  56  32  40 SW18G31   29.21S
ROBINSON*      TSTM      56  52  85 SW21G32   29.20S
CARMI*         RAIN      58  55  88 SW23G29   29.26S
$$

ABBREVIATIONS USED IN REMARKS
   TC - TEMPERATURE IN CELSIUS
  WCI - WIND CHILL INDEX
   HX - HEAT INDEX
  VSB - VISIBILITY
$$




USA.gov is the U.S. government's official web portal to all federal, state and local government web resources and services.